Location: Carrizal
(9.8472°N, 67.3428°W)
Time: 05:49:49
(UTC+00:00)

Cosmos 1992 Rocket - Pass Details

Date: 13 April 2024
Orbit: 756 x 764 km, 74.0° (Epoch: 25 May)

Event Time Altitude Azimuth Distance (km) Brightness Sun altitude
Rises 23:25:14 0° 175° (S) 3,201 7.0 -11.8°
Reaches altitude 10° 23:27:46 10° 166° (SSE) 2,276 6.2 -12.4°
Maximum altitude 23:32:27 36° 101° (E) 1,192 4.5 -13.6°
Drops below altitude 10° 23:37:08 10° 36° (NE) 2,279 6.2 -14.7°
Sets 23:39:39 0° 27° (NNE) 3,205 7.1 -15.3°
